Stündliche Wetter Holo

Heute, 22 Juni, Dienstag

Zeit Temperatur Niederschläge Wind Luftdruck Luftfeuchtigkeit
00:00 +27°C° 0 mm 4 m/S 736 mmHg 83%
01:00 +27°C° 0 mm 4 m/S 736 mmHg 83%
02:00 +26°C° 0 mm 4 m/S 735 mmHg 84%
03:00 +26°C° 0.3 mm 4 m/S 735 mmHg 84%
04:00 +26°C° 0.3 mm 4 m/S 735 mmHg 85%
05:00 +26°C° 0.3 mm 3 m/S 736 mmHg 86%
06:00 +27°C° 0.3 mm 3 m/S 736 mmHg 83%
07:00 +28°C° 0.3 mm 3 m/S 737 mmHg 80%
08:00 +29°C° 0 mm 3 m/S 737 mmHg 77%
09:00 +30°C° 0.1 mm 3 m/S 737 mmHg 73%
10:00 +30°C° 0.1 mm 3 m/S 737 mmHg 69%
11:00 +32°C° 0.1 mm 4 m/S 737 mmHg 66%
12:00 +32°C° 0 mm 4 m/S 736 mmHg 65%
13:00 +32°C° 0 mm 4 m/S 736 mmHg 64%
14:00 +32°C° 0 mm 4 m/S 735 mmHg 64%
15:00 +32°C° 0 mm 4 m/S 735 mmHg 66%
16:00 +30°C° 0 mm 4 m/S 735 mmHg 69%
17:00 +30°C° 0 mm 4 m/S 735 mmHg 72%
18:00 +29°C° 0 mm 3 m/S 735 mmHg 75%
19:00 +28°C° 0 mm 3 m/S 736 mmHg 78%
20:00 +27°C° 0 mm 3 m/S 736 mmHg 81%
21:00 +27°C° 0 mm 3 m/S 736 mmHg 82%
22:00 +27°C° 0 mm 3 m/S 737 mmHg 82%
23:00 +27°C° 0 mm 3 m/S 737 mmHg 83%

Morgen, 23 Juni, Mittwoch

Zeit Temperatur Niederschläge Wind Luftdruck Luftfeuchtigkeit
00:00 +27°C° 0.2 mm 3 m/S 736 mmHg 83%
01:00 +27°C° 0.2 mm 4 m/S 736 mmHg 84%
02:00 +26°C° 0.2 mm 4 m/S 736 mmHg 85%
03:00 +26°C° 0 mm 4 m/S 736 mmHg 86%
04:00 +26°C° 0 mm 3 m/S 736 mmHg 86%
05:00 +26°C° 0 mm 3 m/S 736 mmHg 87%
06:00 +27°C° 0 mm 3 m/S 736 mmHg 83%
07:00 +28°C° 0 mm 2 m/S 737 mmHg 78%
08:00 +29°C° 0 mm 2 m/S 737 mmHg 74%
09:00 +30°C° 0 mm 2 m/S 737 mmHg 71%
10:00 +31°C° 0 mm 2 m/S 737 mmHg 69%
11:00 +31°C° 0 mm 1 m/S 737 mmHg 66%
12:00 +31°C° 0.1 mm 1 m/S 736 mmHg 67%
13:00 +31°C° 0.1 mm 2 m/S 735 mmHg 68%
14:00 +31°C° 0.1 mm 2 m/S 735 mmHg 68%
15:00 +30°C° 0.3 mm 2 m/S 735 mmHg 72%
16:00 +30°C° 0.3 mm 2 m/S 735 mmHg 76%
17:00 +29°C° 0.3 mm 2 m/S 735 mmHg 80%
18:00 +29°C° 0.6 mm 2 m/S 735 mmHg 82%
19:00 +28°C° 0.6 mm 2 m/S 736 mmHg 83%
20:00 +27°C° 0.6 mm 2 m/S 736 mmHg 85%
21:00 +27°C° 0.3 mm 1 m/S 736 mmHg 85%
22:00 +27°C° 0.3 mm 1 m/S 736 mmHg 85%
23:00 +27°C° 0.3 mm 1 m/S 736 mmHg 85%

übermorgen, 24 Juni, Donnerstag

Zeit Temperatur Niederschläge Wind Luftdruck Luftfeuchtigkeit
00:00 +27°C° 0.3 mm 1 m/S 736 mmHg 86%
01:00 +27°C° 0.3 mm 2 m/S 736 mmHg 86%
02:00 +26°C° 0.3 mm 2 m/S 735 mmHg 86%
03:00 +26°C° 0.6 mm 2 m/S 735 mmHg 86%
04:00 +26°C° 0.6 mm 2 m/S 735 mmHg 87%
05:00 +26°C° 0.6 mm 2 m/S 735 mmHg 87%
06:00 +27°C° 0.7 mm 2 m/S 736 mmHg 85%
07:00 +28°C° 0.7 mm 2 m/S 736 mmHg 84%
08:00 +28°C° 0.7 mm 2 m/S 736 mmHg 82%
09:00 +29°C° 0.3 mm 2 m/S 736 mmHg 78%
10:00 +30°C° 0.3 mm 2 m/S 736 mmHg 74%
11:00 +30°C° 0.3 mm 2 m/S 736 mmHg 70%
12:00 +30°C° 0.2 mm 2 m/S 736 mmHg 71%
13:00 +30°C° 0.2 mm 2 m/S 735 mmHg 71%
14:00 +30°C° 0.2 mm 3 m/S 735 mmHg 71%
15:00 +29°C° 0.1 mm 2 m/S 735 mmHg 74%
16:00 +29°C° 0.1 mm 2 m/S 735 mmHg 78%
17:00 +28°C° 0.1 mm 1 m/S 735 mmHg 81%
18:00 +28°C° 0 mm 1 m/S 735 mmHg 82%
19:00 +28°C° 0 mm 1 m/S 735 mmHg 83%
20:00 +27°C° 0 mm 1 m/S 736 mmHg 84%
21:00 +27°C° 0 mm 1 m/S 736 mmHg 84%
22:00 +27°C° 0 mm 1 m/S 736 mmHg 84%
23:00 +27°C° 0 mm 1 m/S 736 mmHg 84%

25 Juni, Freitag

Zeit Temperatur Niederschläge Wind Luftdruck Luftfeuchtigkeit
00:00 +27°C° 0 mm 1 m/S 736 mmHg 85%
01:00 +27°C° 0 mm 1 m/S 735 mmHg 85%
02:00 +26°C° 0 mm 2 m/S 735 mmHg 86%
03:00 +26°C° 0.1 mm 1 m/S 735 mmHg 85%
04:00 +26°C° 0.1 mm 1 m/S 735 mmHg 85%
05:00 +26°C° 0.1 mm 1 m/S 735 mmHg 85%
06:00 +27°C° 0.3 mm 2 m/S 736 mmHg 83%
07:00 +27°C° 0.3 mm 2 m/S 736 mmHg 82%
08:00 +28°C° 0.3 mm 2 m/S 736 mmHg 80%
09:00 +29°C° 0.5 mm 2 m/S 736 mmHg 77%
10:00 +30°C° 0.5 mm 2 m/S 736 mmHg 74%
11:00 +30°C° 0.5 mm 3 m/S 736 mmHg 71%
12:00 +30°C° 0.1 mm 3 m/S 735 mmHg 70%
13:00 +30°C° 0.1 mm 3 m/S 735 mmHg 70%
14:00 +30°C° 0.1 mm 3 m/S 735 mmHg 70%
15:00 +30°C° 0.1 mm 3 m/S 735 mmHg 73%
16:00 +29°C° 0.1 mm 3 m/S 735 mmHg 76%
17:00 +29°C° 0.1 mm 2 m/S 735 mmHg 79%
18:00 +28°C° 0.8 mm 2 m/S 735 mmHg 81%
19:00 +27°C° 0.8 mm 1 m/S 736 mmHg 84%
20:00 +27°C° 0.8 mm 1 m/S 736 mmHg 86%
21:00 +27°C° 0.2 mm 1 m/S 736 mmHg 85%
22:00 +27°C° 0.2 mm 1 m/S 736 mmHg 84%
23:00 +27°C° 0.2 mm 2 m/S 737 mmHg 83%

26 Juni, Samstag

Zeit Temperatur Niederschläge Wind Luftdruck Luftfeuchtigkeit
00:00 +27°C° 0 mm 2 m/S 736 mmHg 83%
01:00 +27°C° 0 mm 2 m/S 736 mmHg 83%
02:00 +27°C° 0 mm 2 m/S 736 mmHg 83%
03:00 +27°C° 0 mm 2 m/S 736 mmHg 84%
04:00 +27°C° 0 mm 3 m/S 736 mmHg 85%
05:00 +27°C° 0 mm 3 m/S 736 mmHg 86%
06:00 +27°C° 0 mm 3 m/S 736 mmHg 85%
07:00 +27°C° 0 mm 2 m/S 737 mmHg 84%
08:00 +28°C° 0 mm 2 m/S 737 mmHg 82%
09:00 +29°C° 0 mm 2 m/S 737 mmHg 75%
10:00 +30°C° 0 mm 2 m/S 736 mmHg 69%
11:00 +31°C° 0 mm 1 m/S 736 mmHg 62%
12:00 +31°C° 0 mm 2 m/S 736 mmHg 65%
13:00 +31°C° 0 mm 2 m/S 735 mmHg 67%
14:00 +30°C° 0 mm 2 m/S 735 mmHg 70%
15:00 +30°C° 0.3 mm 2 m/S 735 mmHg 73%
16:00 +29°C° 0.3 mm 2 m/S 735 mmHg 76%
17:00 +29°C° 0.3 mm 2 m/S 735 mmHg 79%
18:00 +28°C° 0.4 mm 1 m/S 736 mmHg 81%
19:00 +28°C° 0.4 mm 1 m/S 736 mmHg 82%
20:00 +27°C° 0.4 mm 1 m/S 737 mmHg 84%
21:00 +27°C° 0.1 mm 1 m/S 737 mmHg 84%
22:00 +27°C° 0.1 mm 2 m/S 737 mmHg 85%
23:00 +26°C° 0.1 mm 3 m/S 737 mmHg 86%

27 Juni, Sonntag

Zeit Temperatur Niederschläge Wind Luftdruck Luftfeuchtigkeit
00:00 +26°C° 1.2 mm 2 m/S 737 mmHg 87%
01:00 +26°C° 1.2 mm 2 m/S 736 mmHg 89%
02:00 +26°C° 1.2 mm 2 m/S 736 mmHg 90%
03:00 +26°C° 0.8 mm 2 m/S 736 mmHg 89%
04:00 +26°C° 0.8 mm 2 m/S 736 mmHg 89%
05:00 +26°C° 0.8 mm 2 m/S 736 mmHg 88%
06:00 +27°C° 0.3 mm 2 m/S 737 mmHg 85%
07:00 +28°C° 0.3 mm 2 m/S 737 mmHg 82%
08:00 +28°C° 0.3 mm 2 m/S 737 mmHg 79%
09:00 +29°C° 0.1 mm 2 m/S 737 mmHg 74%
10:00 +30°C° 0.1 mm 2 m/S 737 mmHg 70%
11:00 +31°C° 0.1 mm 2 m/S 737 mmHg 65%
12:00 +31°C° 0.1 mm 1 m/S 736 mmHg 66%
13:00 +31°C° 0.1 mm 1 m/S 736 mmHg 66%
14:00 +31°C° 0.1 mm 1 m/S 735 mmHg 67%
15:00 +31°C° 0 mm 1 m/S 735 mmHg 70%
16:00 +30°C° 0 mm 1 m/S 735 mmHg 73%
17:00 +30°C° 0 mm 1 m/S 735 mmHg 76%
18:00 +29°C° 0.1 mm 1 m/S 736 mmHg 78%
19:00 +28°C° 0.1 mm 1 m/S 736 mmHg 81%
20:00 +27°C° 0.1 mm 2 m/S 737 mmHg 83%
21:00 +27°C° 0 mm 2 m/S 737 mmHg 84%
22:00 +27°C° 0 mm 2 m/S 737 mmHg 85%
23:00 +27°C° 0 mm 2 m/S 737 mmHg 86%
Mehr zeigen

Wir brauchen deine Erlaubnis

Meteoprog und unser Service Anbieter werden persönliche Daten aufbewahren, so wie Cookies, Geräte Bezeichnung oder ähnliche Technologien von deinem Gerät und Prozess, so wie Persönliche Daten Inhalte und Werbungen, genauso wie social Media und den Verkehr zu analysieren.

  • Aufbewahrung und/oder Zugang zu deiner Geräte Informationen.

    Cookies, Geräte Bezeichnung oder andere Informationen, können aufbewahrt oder Zugang zu deinem Gerät erhalten, für den Grund, der oben angegeben wird.

  • Personalisierte Werbung und Inhalte, Messungen, Einblick in das Publikum und Produkt Entwicklung.

    Werbungen und Inhalte können personalisiert werden, basierend auf ein Profil. Mehr Daten können besser personalisierte Werbungen und Inhalte hinzufügen. Werbung und Inhalte können gezeigt und gemessen werden. Einblicke über das Publikum, welche die Werbung gesehen haben und den Inhalt, können abgeleitet werden. So wie Daten können genutzt werden, um es zu verbessern oder die Benutzer Erfahrung zu verbessern das System und die Software.

Wenn du “Ich stimme zu” klickst, erlaubst du uns, die Cookies zu benutzen die Geräte Bezeichnung, den Web oder ähnliche Technologien zu benutzen. Deine Settings, können in deinem Gerät bei deinem Browser geändert werden.

Für den bestimmten Zweck, berechtigten Interessen beruhen darauf, mehr als auf den Inhalt. Du kannst mehr darüber in unseren Privaten und Cookie Politik lesen.